{"data":{"norad_id":66302,"epoch":"2026-09-20T04:17:09.242016Z","epoch_age_seconds":159423,"freshness":"FRESH","line1":"1 66302U 25248K   26263.17857919  .00002146  00000+0  14745-3 0  9990","line2":"2 66302  45.4068 352.5535 0006631 206.5391 153.5153 15.09456497 49877","mean_motion":15.09456497,"eccentricity":0.0006631,"inclination_deg":45.4068,"raan_deg":352.5535,"arg_perigee_deg":206.5391,"mean_anomaly_deg":153.5153,"bstar":0.00014745,"rev_number":4987,"period_min":95.39857576962,"perigee_km":533.27364827719,"apogee_km":542.44564302865,"semimajor_km":6915.9966456529,"source":"CELESTRAK","updated_at":"2026-09-21T09:00:15.899806Z"}}